Weather History for Findlay, OH

Change the Weather History Date:

Wednesday, June 26, 2013

  Actual Average Record
Temperature  
Mean Temperature 76 °F -  
Max Temperature 86 °F 82 °F 100 °F (1952)
Min Temperature 66 °F 61 °F 47 °F (1961)
Cooling Degree Days 11    
Growing Degree Days 26 (Base 50)    
Moisture  
Dew Point 66 °F    
Average Humidity 75    
Maximum Humidity 93    
Minimum Humidity 55    
Precipitation  
Precipitation 0.07 in - - ()
Sea Level Pressure  
Sea Level Pressure 29.82 in    
Wind  
Wind Speed 9 mph (SSW)    
Max Wind Speed 20 mph    
Max Gust Speed 32 mph    
Visibility 10 miles    
Events Rain , Thunderstorm    
Averages and records for this station are not official NWS values.
T = Trace of Precipitation, MM = Missing Value Source: NWS Daily Summary

Daily Weather History Graph

Daily Weather History Graph

Search for Another Location

Airport:

Trip Planner

Search our weather history database for the weather conditions in past years. The results will help you decide how hot, cold, wet, or windy it might be!

Date:

Astronomy

Jun. 26, 2013 Rise Set
Actual Time 6:04 AM EDT 9:10 PM EDT
Civil Twilight 5:30 AM EDT 9:44 PM EDT
Nautical Twilight 4:47 AM EDT 10:27 PM EDT
Astronomical Twilight 3:56 AM EDT 11:18 PM EDT
Moon 11:31 PM EDT (6/26) 9:56 AM EDT (6/26)
Length of Visible Light 16h 14m
Length of Day
15h 06m
Waning Gibbous, 85% of the Moon is Illuminated
Jun 26
Waning Gibbous
Jun 30
Last Quarter
Jul 8
New
Jul 15
First Quarter
Jul 22
Full

Hourly Weather History & Observations

Time (EDT) Temp. Heat Index Dew Point Humidity Pressure Visibility Wind Dir Wind Speed Gust Speed Precip Events Conditions
12:31 AM 71.6 °F - 64.4 °F 78% 29.92 in 10.0 mi NNW 11.5 mph - 0.00 in Thunderstorm Scattered Clouds
12:46 AM 71.6 °F - 64.4 °F 78% 29.92 in 10.0 mi NNW 11.5 mph - 0.00 in   Scattered Clouds
12:53 AM 71.1 °F - 63.0 °F 75% 29.88 in 10.0 mi NNW 9.2 mph - 0.00 in   Mostly Cloudy
1:53 AM 69.1 °F - 64.0 °F 84% 29.88 in 8.0 mi NNW 8.1 mph - 0.01 in Rain Rain
2:53 AM 66.9 °F - 64.9 °F 93% 29.86 in 10.0 mi South 4.6 mph - 0.05 in Rain Light Rain
3:53 AM 66.9 °F - 64.9 °F 93% 29.84 in 10.0 mi SSW 5.8 mph - 0.00 in   Mostly Cloudy
4:53 AM 68.0 °F - 64.9 °F 90% 29.84 in 10.0 mi South 6.9 mph - 0.00 in   Overcast
5:53 AM 68.0 °F - 64.9 °F 90% 29.84 in 10.0 mi South 10.4 mph - 0.01 in   Overcast
6:53 AM 66.9 °F - 64.9 °F 93% 29.85 in 10.0 mi SSE 11.5 mph - N/A   Clear
7:53 AM 70.0 °F - 66.0 °F 87% 29.86 in 10.0 mi South 10.4 mph - N/A   Partly Cloudy
8:53 AM 73.0 °F - 66.9 °F 81% 29.86 in 10.0 mi SSW 10.4 mph - N/A   Mostly Cloudy
9:53 AM 75.9 °F - 66.9 °F 74% 29.85 in 10.0 mi WSW 9.2 mph - N/A   Scattered Clouds
10:53 AM 78.1 °F - 68.0 °F 71% 29.86 in 10.0 mi West 12.7 mph - N/A   Partly Cloudy
11:53 AM 80.1 °F 82.3 °F 66.9 °F 64% 29.88 in 10.0 mi West 13.8 mph - N/A   Scattered Clouds
12:53 PM 80.1 °F 82.3 °F 66.9 °F 64% 29.86 in 10.0 mi West 12.7 mph - N/A   Mostly Cloudy
1:07 PM 80.6 °F 82.7 °F 66.2 °F 61% 29.88 in 10.0 mi WNW 10.4 mph - N/A   Partly Cloudy
1:53 PM 82.0 °F 84.1 °F 66.0 °F 58% 29.82 in 10.0 mi South 4.6 mph - N/A   Clear
2:53 PM 81.0 °F 82.7 °F 64.9 °F 58% 29.82 in 10.0 mi South 9.2 mph - N/A   Partly Cloudy
3:53 PM 86.0 °F 89.4 °F 68.0 °F 55% 29.78 in 10.0 mi South 6.9 mph - N/A   Clear
4:53 PM 84.9 °F 88.8 °F 69.1 °F 59% 29.76 in 10.0 mi SSE 6.9 mph - N/A   Mostly Cloudy
5:02 PM 84.2 °F 88.4 °F 69.8 °F 62% 29.79 in 10.0 mi South 10.4 mph - N/A Thunderstorm Mostly Cloudy
5:32 PM 78.8 °F - 64.4 °F 61% 29.78 in 10.0 mi South 12.7 mph - N/A Thunderstorm Scattered Clouds
5:53 PM 75.0 °F - 64.0 °F 69% 29.76 in 10.0 mi South 19.6 mph 32.2 mph 0.00 in Thunderstorm Mostly Cloudy
6:15 PM 73.4 °F - 66.2 °F 78% 29.78 in 10.0 mi SSE 11.5 mph - N/A   Partly Cloudy
6:53 PM 73.9 °F - 66.9 °F 79% 29.76 in 10.0 mi SE 5.8 mph - N/A   Partly Cloudy
7:53 PM 73.9 °F - 64.9 °F 73% 29.76 in 10.0 mi SSE 6.9 mph - N/A   Scattered Clouds
8:53 PM 73.0 °F - 66.9 °F 81% 29.76 in 10.0 mi SSE 3.5 mph - N/A   Scattered Clouds
9:53 PM 73.0 °F - 66.9 °F 81% 29.76 in 10.0 mi Calm Calm - N/A   Mostly Cloudy
10:53 PM 72.0 °F - 66.9 °F 84% 29.75 in 10.0 mi SE 3.5 mph - 0.00 in   Clear
11:53 PM 72.0 °F - 68.0 °F 87% 29.75 in 10.0 mi SE 4.6 mph - N/A   Partly Cloudy